This is the latest recevied weather packets stored in our database for station/object KM8V-8. If no packets are shown the sender has not sent any weather packets the latest 10 day(s).
| Time | Temp. | Humidity | Pressure | Rain* | Wind** | Luminosity | Snow |
|---|---|---|---|---|---|---|---|
| 1777572619 | 10.56° C | 61% | 1013.7 hPa | 0 mm | - | 717 W/m² | - |
| 1777572320 | 10.56° C | 62% | 1013.7 hPa | 0 mm | - | 907 W/m² | - |
| 1777572020 | 10.56° C | 64% | 1013.8 hPa | 0 mm | - | 814 W/m² | - |
| 1777571720 | 10° C | 66% | 1013.9 hPa | 0 mm | - | 975 W/m² | - |
| 1777571420 | 10° C | 67% | 1014 hPa | 0 mm | - | 462 W/m² | - |
| 1777571120 | 10° C | 69% | 1013.9 hPa | 0 mm | - | 538 W/m² | - |
| 1777570820 | 10° C | 70% | 1013.9 hPa | 0 mm | - | 740 W/m² | - |
| 1777570521 | 9.44° C | 69% | 1014 hPa | 0 mm | - | 529 W/m² | - |
| 1777570221 | 9.44° C | 72% | 1014 hPa | 0 mm | - | 606 W/m² | - |
| 1777569920 | 9.44° C | 72% | 1014.1 hPa | 0 mm | - | 956 W/m² | - |
| 1777569620 | 8.89° C | 74% | 1014.1 hPa | 0 mm | - | 516 W/m² | - |
| 1777569321 | 8.89° C | 75% | 1014.1 hPa | 0 mm | - | 378 W/m² | - |
| 1777569027 | 8.89° C | 75% | 1014.2 hPa | 0 mm | - | 368 W/m² | - |
| 1777568727 | 8.89° C | 75% | 1014.2 hPa | 0 mm | - | 257 W/m² | - |
| 1777568421 | 8.89° C | 73% | 1014.1 hPa | 0 mm | - | 304 W/m² | - |
| 1777568127 | 9.44° C | 71% | 1014.2 hPa | 0 mm | - | 230 W/m² | - |
| 1777567827 | 9.44° C | 73% | 1014.2 hPa | 0 mm | - | 423 W/m² | - |
| 1777567521 | 8.89° C | 73% | 1014.3 hPa | 0 mm | - | 495 W/m² | - |
| 1777567221 | 8.89° C | 72% | 1014.3 hPa | 0 mm | - | 599 W/m² | - |
| 1777566928 | 8.89° C | 73% | 1014.4 hPa | 0 mm | - | 412 W/m² | - |
| 1777566627 | 8.33° C | 74% | 1014.3 hPa | 0 mm | - | 371 W/m² | - |
| 1777566323 | 8.33° C | 73% | 1014.3 hPa | 0 mm | - | 368 W/m² | - |
| 1777566021 | 8.33° C | 71% | 1014.3 hPa | 0 mm | - | 304 W/m² | - |
| 1777565727 | 8.33° C | 72% | 1014.3 hPa | 0 mm | - | 304 W/m² | - |
| 1777565428 | 8.33° C | 72% | 1014.2 hPa | 0 mm | - | 340 W/m² | - |
* Rain latest hour (hover to see other rain measurements)
** Current wind speed in m/s (hover to see current wind gust speed)